Location: *
(41.7492°S, 135.4150°W)
Time: 00:26:49
(UTC+00:00)

SMAP - Pass Details

Date: 20 September 2021
Orbit: 681 x 683 km, 98.1° (Epoch: 25 October)

Event Time Altitude Azimuth Distance (km) Brightness Sun altitude
Rises 14:16:57 0° 19° (NNE) 3,038 6.6 -7.7°
Reaches altitude 10° 14:19:10 10° 20° (NNE) 2,130 5.8 -7.2°
Maximum altitude 14:23:49 76° 104° (ESE) 716 3.4 -6.4°
Drops below altitude 10° 14:28:33 10° 190° (S) 2,160 5.6 -5.5°
Sets 14:30:49 0° 191° (S) 3,084 6.4 -5.1°
